Weather History for Jackson, TN

Change the Weather History Date:

Friday, December 30, 2011

  Actual Average Record
Temperature  
Mean Temperature 54 °F 38 °F  
Max Temperature 61 °F 48 °F 74 °F (1951)
Min Temperature 46 °F 29 °F 4 °F (1983)
Degree Days  
Heating Degree Days 11 26  
Month to date heating degree days 653 724  
Since 1 July heating degree days 1264 1391  
Cooling Degree Days 0 0  
Month to date cooling degree days 0 0  
Year to date cooling degree days 1936 1697  
Growing Degree Days 4 (Base 50)    
Moisture  
Dew Point 44 °F    
Average Humidity 68    
Maximum Humidity 89    
Minimum Humidity 47    
Precipitation  
Precipitation 0.00 in 0.15 in 1.31 in (1990)
Month to date precipitation 7.66 5.21  
Year to date precipitation 59.00 53.13  
Snow  
Snow 0.00 in 0.00 in 1.00 in (1976)
Month to date snowfall 1.3 0.2  
Since 1 July snowfall 3.3 0.3  
Snow Depth 0.00 in    
Sea Level Pressure  
Sea Level Pressure 29.88 in    
Wind  
Wind Speed 13 mph (SW)    
Max Wind Speed 22 mph    
Max Gust Speed 28 mph    
Visibility 10 miles    
Events      
T = Trace of Precipitation, MM = Missing Value Source: NWS Daily Summary

Daily Weather History Graph

Daily Weather History Graph

Search for Another Location

Airport:

Trip Planner

Search our weather history database for the weather conditions in past years. The results will help you decide how hot, cold, wet, or windy it might be!

Date:

Astronomy

Dec. 30, 2011 Rise Set
Actual Time 7:04 AM CST 4:51 PM CST
Civil Twilight 6:36 AM CST 5:20 PM CST
Nautical Twilight 6:04 AM CST 5:51 PM CST
Astronomical Twilight 5:33 AM CST 6:22 PM CST
Moon 10:37 AM CST (12/30) 11:12 PM CST (12/30)
Length of Visible Light 10h 43m
Length of Day
9h 46m
Waxing Crescent, 36% of the Moon is Illuminated
Dec 30
Waxing Crescent
Jan 1
First Quarter
Jan 9
Full
Jan 16
Last Quarter
Jan 23
New

Hourly Weather History & Observations

Time (CST) Temp. Dew Point Humidity Pressure Visibility Wind Dir Wind Speed Gust Speed Precip Events Conditions
12:53 AM 48.0 °F 44.1 °F 86% 29.88 in 10.0 mi South 10.4 mph - N/A   Clear
1:53 AM 48.0 °F 44.1 °F 86% 29.88 in 10.0 mi South 8.1 mph - N/A   Clear
2:53 AM 48.9 °F 44.1 °F 83% 29.87 in 10.0 mi South 10.4 mph - N/A   Clear
3:53 AM 48.0 °F 44.1 °F 86% 29.85 in 10.0 mi South 10.4 mph - N/A   Clear
4:53 AM 48.9 °F 45.0 °F 86% 29.86 in 10.0 mi South 12.7 mph - N/A   Mostly Cloudy
5:53 AM 50.0 °F 46.0 °F 86% 29.86 in 10.0 mi SSW 13.8 mph - N/A   Mostly Cloudy
6:53 AM 51.1 °F 46.0 °F 83% 29.84 in 10.0 mi South 16.1 mph 21.9 mph N/A   Clear
7:53 AM 52.0 °F 48.0 °F 86% 29.86 in 10.0 mi SSW 13.8 mph - N/A   Mostly Cloudy
8:04 AM 51.8 °F 48.2 °F 88% 29.86 in 10.0 mi SSW 16.1 mph 21.9 mph N/A   Mostly Cloudy
8:46 AM 53.6 °F 50.0 °F 88% 29.86 in 10.0 mi SSW 16.1 mph 24.2 mph N/A   Mostly Cloudy
8:53 AM 54.0 °F 48.9 °F 83% 29.87 in 10.0 mi SW 18.4 mph - N/A   Mostly Cloudy
9:53 AM 55.0 °F 48.9 °F 80% 29.86 in 10.0 mi SW 15.0 mph - N/A   Scattered Clouds
10:53 AM 57.0 °F 48.9 °F 74% 29.85 in 10.0 mi SW 13.8 mph - N/A   Partly Cloudy
11:53 AM 57.2 °F 46.4 °F 67% 29.83 in 10.0 mi WSW 16.1 mph 24.2 mph N/A   Partly Cloudy
12:53 PM 57.9 °F 45.0 °F 62% 29.83 in 10.0 mi WSW 13.8 mph - N/A   Clear
1:53 PM 59.0 °F 44.1 °F 58% 29.83 in 10.0 mi WSW 15.0 mph - N/A   Clear
2:53 PM 60.1 °F 41.0 °F 49% 29.84 in 10.0 mi WSW 17.3 mph 23.0 mph N/A   Clear
3:53 PM 59.0 °F 39.0 °F 48% 29.85 in 10.0 mi WSW 16.1 mph 21.9 mph N/A   Clear
4:53 PM 55.9 °F 39.9 °F 55% 29.88 in 10.0 mi WSW 9.2 mph - N/A   Clear
5:53 PM 53.1 °F 39.9 °F 61% 29.89 in 10.0 mi SW 9.2 mph - N/A   Clear
6:53 PM 52.0 °F 39.9 °F 63% 29.91 in 10.0 mi SW 11.5 mph - N/A   Clear
7:53 PM 51.1 °F 41.0 °F 68% 29.92 in 10.0 mi SW 11.5 mph - N/A   Clear
8:53 PM 52.0 °F 42.1 °F 69% 29.95 in 10.0 mi WSW 12.7 mph - N/A   Clear
9:53 PM 48.9 °F 42.1 °F 77% 29.97 in 10.0 mi WSW 10.4 mph - N/A   Clear
10:53 PM 48.0 °F 39.9 °F 74% 29.97 in 10.0 mi WSW 9.2 mph - N/A   Clear
11:53 PM 46.9 °F 39.9 °F 77% 29.99 in 10.0 mi WSW 8.1 mph - N/A   Clear